Simultaneous Nadir Overpasses (SNOs) Predictions

Prediction of SNOs between AQUA and METOP-B Satellite Orbit:

Table of predicted SNOs for the next 14.0 days since TLE Epoch: 12/22/2017
Index Date (AQUA) Time (AQUA) Lat,Lon (AQUA) SZA (AQUA ) Date (METOP-B) Time (METOP-B) Lat,Lon (METOP-B) SZA (METOP-B ) Distance(km) Time Diff (sec)
1 12/24/2017 05:56:07 73.77, 85.29 97.16 12/24/2017 05:55:04 73.76, 85.27 97.16 0.95 63
2 12/24/2017 06:45:34 -73.85,-107.24 82.77 12/24/2017 06:45:44 -73.86,-107.16 82.75 3.13 10
3 12/24/2017 07:35:08 74.18, 59.65 97.59 12/24/2017 07:36:18 74.14, 60.85 97.51 36.65 70
4 12/27/2017 01:30:24 73.78, 151.71 97.09 12/27/2017 01:29:26 73.79, 151.75 97.11 2.04 58
5 12/27/2017 02:19:51 -73.85, -40.82 82.84 12/27/2017 02:20:07 -73.85, -40.79 82.84 1.34 16
6 12/27/2017 03:09:29 74.39, 125.58 97.74 12/27/2017 03:10:36 74.36, 127.82 97.64 67.45 67
7 12/29/2017 21:04:40 73.79,-141.90 96.97 12/29/2017 21:03:48 73.77,-141.90 96.95 2.88 52
8 12/29/2017 21:54:06 -73.82, 25.69 83.01 12/29/2017 21:54:29 -73.83, 25.58 83.00 3.67 23
9 12/29/2017 22:43:49 74.61,-168.53 97.84 12/29/2017 22:44:53 74.58,-165.19 97.71 98.78 64
10 01/01/2018 16:38:56 73.77, -75.40 96.74 01/01/2018 16:38:10 73.79, -75.43 96.77 2.94 46
11 01/01/2018 17:28:23 -73.85, 92.07 83.19 01/01/2018 17:28:51 -73.86, 92.05 83.18 1.54 28
12 01/04/2018 12:13:13 73.80, -9.04 96.51 01/04/2018 12:12:32 73.81, -8.97 96.53 2.49 41
13 01/04/2018 13:02:40 -73.88, 158.43 83.41 01/04/2018 13:03:13 -73.88, 158.52 83.41 2.76 33




NCC Satellite Simultaneous Nadir Overpasses (SNOs) Prediction Service
